Погода в Стрелецкой

Россия / Чувашская Республика     55°58′01″N   46°10′23″E
темп.,
°C
ветер,
м/с
пор.,
м/с
влажн.,
%
обл.,
%
осадки,
мм/ч
давл.,
гПа
погр.,
м
3 августа, вт
вт300:00+21ююв366954 0.0 1009104
03:00+20ююв3107120 0.0 1008176
06:00+23ю410602 0.0 1008282
09:00+29ююз58435 0.0 1007570
12:00+33юз5103494 0.0 10072255
15:00+23зюз141882100 4.4 10101371
18:00+19ю2589100 9.9 1009132
21:00+19ю3691100 10.1 1009116
4 августа, ср
ср400:00+19ю2599100 3.8 1010157
03:00+19ю1193100 4.1 101012
06:00+19юз249386 0.1 1010152
09:00+21зсз358167 1.5 1011294
12:00+21ссз2579100 3.9 1011323
15:00+23сз4659100 5.3 10121271
18:00+23сз23590 0.0 101297
21:00+18зсз116196 0.0 101311
5 августа, чт
чт500:00+19зсз225818 0.0 101443
03:00+15сз236964 0.0 101448
06:00+16зсз247089 0.0 1016134
09:00+22ссз245199 0.0 1016786
12:00+24ссз3536100 0.0 10162494
15:00+23ссз3444100 0.0 10171405
18:00+22ссз2456100 0.0 1017134
21:00+16юв1156100 0.0 101711
6 августа, пт
пт600:00+15ю005685 0.0 101811
03:00+14в115457 0.0 101811
06:00+16вюв115575 0.0 101926
09:00+18вюв2357100 0.0 1019150
12:00+24юв233959 0.0 10181276
15:00+23ююв3444100 0.0 1017736
18:00+21в3755100 0.0 1016171
21:00+20юв41155100 0.0 1015274
7 августа, сб
сб700:00+20ююв51351100 0.0 1015410
03:00+18ююв4115081 0.0 1015316
06:00+17ююв296378 0.0 1015253
09:00+23ююз464871 0.0 1015569
12:00+28ююз45365 0.0 10151292
15:00+30ююз46315 0.0 10141946
18:00+26ю4947100 0.0 1014337
21:00+21ююв375837 0.0 1015124